Flag for U.S.A. Weather past 2 weeks in Freehold, New Jersey, U.S.A.

46 °F

Mostly cloudy.

Feels Like: 42 °F
Forecast: 36 / 47 °F
Wind: 9 mph from North

Location: Belmar-Farmdale

Current Time: Nov 28, 2015 at 9:48:39 PM

Latest Report: Nov 28, 2015 at 9:15 PM

Visibility: 9 mi

Pressure: 30.20 "Hg

Humidity: 71%

Dew point: 37 °F

Location of FreeholdLocation

Historic Weather in Freehold — Graph


Freehold temperature yesterday

Maximum temperature yesterday: 66 °F (at 1:15 PM)
Minimum temperature yesterday: 45 °F (at 4:15 AM)
Average temperature yesterday: 55 °F

Past Weeks' High & Low Weather Summary

High68 °F (Nov 16, 2:35 PM)83% (Nov 19, 10:35 PM)30.81 "Hg (Nov 19, 10:35 PM)
Low27 °F (Nov 24, 3:35 AM)28% (Nov 16, 2:55 PM)29.82 "Hg (Nov 13, 8:15 PM)
Average48 °F53%30.26 "Hg
* Reported Nov 13 8:15 PM — Nov 28 8:55 PM, Freehold, Weather by CustomWeather, © 2015

Note: Actual official high and low records may vary slightly from our data, if they occured in-between our weather recording intervals... More about our weather records


Freehold weather history for previous 24 hours

Time TempWeatherWind HumidityBarometerVisibility
8:55 PM
Sat, Nov 28
48 °FMostly cloudy.10 mph71%30.19 "Hg10 mi
8:35 PM50 °FLow clouds.14 mph76%30.18 "Hg9 mi
8:15 PM52 °FOvercast.9 mph72%30.17 "Hg10 mi
7:55 PM52 °FOvercast.7 mph72%30.17 "Hg10 mi
6:55 PM52 °FLow clouds.8 mph77%30.16 "Hg10 mi
6:15 PM54 °FMostly cloudy.9 mph77%30.14 "Hg10 mi
5:55 PM55 °FMostly cloudy.6 mph77%30.14 "Hg7 mi
5:15 PM55 °FPartly cloudy.5 mph77%30.14 "Hg10 mi
4:55 PM55 °FMostly cloudy.5 mph77%30.14 "Hg7 mi
4:35 PM55 °FOvercast.5 mph77%30.14 "Hg10 mi
3:35 PM59 °FMostly cloudy.8 mph63%30.14 "Hg10 mi
3:15 PM61 °FMostly cloudy.6 mph59%30.13 "Hg10 mi
2:55 PM61 °FMostly cloudy.6 mph59%30.12 "Hg10 mi
2:35 PM61 °FMostly cloudy.6 mph59%30.11 "Hg10 mi
2:15 PM61 °FMostly cloudy.6 mph59%30.12 "Hg10 mi
1:55 PM61 °FMostly cloudy.No wind59%30.11 "Hg10 mi
1:35 PM61 °FCloudy.6 mph59%30.12 "Hg10 mi
1:15 PM61 °FOvercast.6 mph59%30.12 "Hg10 mi
12:55 PM61 °FMostly cloudy.6 mph59%30.13 "Hg10 mi
12:35 PM61 °FMostly cloudy.7 mph59%30.13 "Hg10 mi
12:15 PM61 °FMostly cloudy.6 mph59%30.13 "Hg10 mi
11:55 AM59 °FMostly cloudy.5 mph63%30.14 "Hg10 mi
11:35 AM59 °FBroken clouds.7 mph63%30.15 "Hg10 mi
11:15 AM59 °FMore clouds than sun.6 mph63%30.15 "Hg10 mi
10:55 AM57 °FMostly cloudy.6 mph63%30.16 "Hg10 mi
10:35 AM57 °FOvercast.3 mph63%30.18 "Hg10 mi
10:15 AM55 °FScattered clouds.5 mph67%30.18 "Hg10 mi
9:55 AM55 °FSunny.6 mph67%30.18 "Hg10 mi
9:35 AM55 °FSunny.5 mph67%30.18 "Hg10 mi
9:15 AM54 °FSunny.3 mph72%30.18 "Hg10 mi
8:55 AM54 °FPassing clouds.5 mph72%30.18 "Hg10 mi
8:35 AM54 °FPartly sunny.6 mph72%30.17 "Hg10 mi
8:15 AM54 °FOvercast.5 mph72%30.19 "Hg10 mi
7:55 AM52 °FScattered clouds.6 mph72%30.18 "Hg10 mi
7:35 AM52 °FSunny.6 mph72%30.16 "Hg10 mi
7:15 AM52 °FSunny.5 mph72%30.18 "Hg10 mi
6:55 AM52 °FClear.6 mph72%30.17 "Hg10 mi
6:35 AM52 °FClear.6 mph72%30.18 "Hg10 mi
6:15 AM52 °FClear.6 mph72%30.17 "Hg10 mi
5:55 AM52 °FClear.6 mph72%30.17 "Hg10 mi
5:35 AM52 °FClear.7 mph72%30.17 "Hg10 mi
5:15 AM52 °FPassing clouds.7 mph72%30.18 "Hg10 mi
4:55 AM52 °FPassing clouds.7 mph72%30.18 "Hg10 mi
4:35 AM52 °FPassing clouds.8 mph72%30.18 "Hg10 mi
4:15 AM52 °FOvercast.6 mph72%30.19 "Hg10 mi
3:55 AM52 °FPassing clouds.7 mph72%30.19 "Hg10 mi
3:35 AM52 °FClear.7 mph72%30.19 "Hg10 mi
3:15 AM52 °FClear.6 mph72%30.19 "Hg10 mi
2:55 AM52 °FClear.7 mph72%30.20 "Hg10 mi
1:35 AM52 °FClear.5 mph72%30.22 "Hg10 mi
1:15 AM52 °FClear.7 mph72%30.23 "Hg10 mi
12:55 AM52 °FClear.6 mph72%30.24 "Hg10 mi
12:35 AM52 °FClear.7 mph72%30.24 "Hg10 mi
11:55 PM
Fri, Nov 27
52 °FClear.6 mph67%30.25 "Hg10 mi
11:35 PM52 °FClear.6 mph72%30.25 "Hg10 mi
11:15 PM52 °FClear.7 mph72%30.25 "Hg10 mi
10:55 PM52 °FClear.6 mph72%30.26 "Hg10 mi
10:35 PM52 °FClear.8 mph72%30.27 "Hg10 mi
10:15 PM52 °FClear.7 mph67%30.27 "Hg10 mi
9:55 PM52 °FClear.6 mph67%30.29 "Hg10 mi
9:35 PM54 °FClear.7 mph63%30.29 "Hg10 mi
9:15 PM54 °FClear.7 mph67%30.29 "Hg10 mi
Weather by CustomWeather, © 2015

See weather overviewHow to use our weather pages